Location: ????????
(55.0097°N, 38.5678°E)
Time: 05:33:17
(UTC+00:00)

DMSP B5D2-2 - Pass Details

Date: 14 April 2024
Orbit: 788 x 802 km, 98.3° (Epoch: 23 May)

Event Time Altitude Azimuth Distance (km) Brightness Sun altitude
Rises 01:42:22 0° 182° (S) 3,275 7.0 -6.4°
Reaches altitude 10° 01:44:46 10° 188° (S) 2,350 6.2 -6.1°
Maximum altitude 01:49:45 46° 262° (W) 1,056 4.4 -5.4°
Drops below altitude 10° 01:54:46 10° 335° (NNW) 2,365 6.6 -4.8°
Sets 01:57:12 0° 342° (NNW) 3,300 7.4 -4.5°
